Gainesville, FL

12:42 AM EDT on March 24, 2017 (GMT -0400)
Gainesville Regional

Weather History for KGNV - December, 2012

Change the Weather History Date:

Thursday, December 27, 2012

  Actual Average Record
Temperature  
Mean Temperature 47 °F 54 °F  
Max Temperature 59 °F 66 °F 84 °F (1942)
Min Temperature 34 °F 43 °F 23 °F (1970)
Degree Days  
Heating Degree Days 18 11  
Month to date heating degree days 140 251  
Since 1 July heating degree days 333 412  
Cooling Degree Days 0 0  
Month to date cooling degree days 19 24  
Year to date cooling degree days 2981 2640  
Moisture  
Dew Point 34 °F    
Average Humidity 66    
Maximum Humidity 92    
Minimum Humidity 40    
Precipitation  
Precipitation 0.00 in 0.07 in 2.26 in (1964)
Month to date precipitation 5.89 2.07  
Year to date precipitation 55.20 47.00  
Snow  
Snow 0.00 in 0.00 in 0.00 in ()
Month to date snowfall 0.0 0.0  
Since 1 July snowfall 0.0 0.0  
Snow Depth 0.00 in    
Sea Level Pressure  
Sea Level Pressure 30.07 in    
Wind  
Wind Speed 4 mph (West)    
Max Wind Speed 12 mph    
Max Gust Speed 15 mph    
Visibility 10 miles    
Events      
T = Trace of Precipitation, MM = Missing Value Source: NWS Daily Summary

Daily Weather History Graph

Daily Weather History Graph

Search for Another Location

Airport or City:

Trip Planner

Search our weather history database for the weather conditions in past years. The results will help you decide how hot, cold, wet, or windy it might be!

Date:

Astronomy

Dec. 27, 2012 Rise Set
Actual Time 7:22 AM EST 5:38 PM EST
Civil Twilight 6:56 AM EST 6:04 PM EST
Nautical Twilight 6:26 AM EST 6:34 PM EST
Astronomical Twilight 5:57 AM EST 7:03 PM EST
Moon 5:17 PM EST (12/27) 6:35 AM EST (12/27)
Length of Visible Light 11h 07m
Length of Day
10h 15m
Full, 100% of the Moon is Illuminated
Dec 27
Full
Dec 28
Full
Jan 4
Last Quarter
Jan 11
New
Jan 18
First Quarter

Hourly Weather History & Observations

Time (EST) Temp. Windchill Dew Point Humidity Pressure Visibility Wind Dir Wind Speed Gust Speed Precip Events Conditions
12:53 AM 41.0 °F 35.8 °F 32.0 °F 70% 30.03 in 10.0 mi NW 8.1 mph - N/A   Clear
1:53 AM 39.0 °F 34.8 °F 32.0 °F 76% 30.03 in 10.0 mi WNW 5.8 mph - N/A   Clear
2:53 AM 37.9 °F 32.7 °F 32.0 °F 79% 30.04 in 10.0 mi WNW 6.9 mph - N/A   Clear
3:53 AM 37.0 °F 32.4 °F 32.0 °F 82% 30.06 in 10.0 mi West 5.8 mph - N/A   Clear
4:53 AM 36.0 °F 31.1 °F 30.9 °F 82% 30.04 in 10.0 mi West 5.8 mph - N/A   Clear
5:53 AM 35.1 °F 29.3 °F 30.9 °F 85% 30.04 in 10.0 mi WNW 6.9 mph - N/A   Clear
6:53 AM 34.0 °F 29.8 °F 30.9 °F 89% 30.07 in 10.0 mi West 4.6 mph - N/A   Clear
8:53 AM 39.0 °F 34.8 °F 33.1 °F 79% 30.09 in 10.0 mi NNW 5.8 mph - N/A   Clear
9:53 AM 43.0 °F 38.2 °F 33.1 °F 68% 30.13 in 10.0 mi WNW 8.1 mph - N/A   Clear
10:53 AM 46.0 °F 43.9 °F 34.0 °F 63% 30.14 in 10.0 mi WSW 4.6 mph - N/A   Clear
11:53 AM 50.0 °F - 34.0 °F 54% 30.12 in 10.0 mi Calm Calm - N/A   Clear
12:53 PM 53.1 °F - 34.0 °F 48% 30.08 in 10.0 mi West 4.6 mph - N/A   Clear
1:53 PM 55.9 °F - 34.0 °F 44% 30.06 in 10.0 mi West 4.6 mph - N/A   Clear
2:53 PM 57.9 °F - 35.1 °F 42% 30.04 in 10.0 mi West 8.1 mph - N/A   Clear
3:53 PM 59.0 °F - 35.1 °F 41% 30.04 in 10.0 mi West 9.2 mph - N/A   Clear
4:53 PM 57.0 °F - 36.0 °F 45% 30.05 in 10.0 mi WSW 6.9 mph - N/A   Clear
5:53 PM 52.0 °F - 37.0 °F 57% 30.05 in 10.0 mi Calm Calm - N/A   Clear
7:53 PM 41.0 °F 39.0 °F 37.9 °F 89% 30.09 in 10.0 mi West 3.5 mph - N/A   Clear
8:53 PM 39.9 °F - 37.0 °F 89% 30.09 in 10.0 mi Calm Calm - N/A   Clear
9:53 PM 39.9 °F - 37.0 °F 89% 30.09 in 10.0 mi Calm Calm - N/A   Clear
10:53 PM 37.9 °F - 36.0 °F 93% 30.11 in 10.0 mi Calm Calm - N/A   Clear
11:53 PM 39.0 °F - 36.0 °F 89% 30.10 in 10.0 mi Calm Calm - N/A   Clear